Time,TemperatureF,DewpointF,PressureIn,WindDirection,WindDirectionDegrees,WindSpeedMPH,WindSpeedGustMPH,Humidity,HourlyPrecipIn,Conditions,Clouds,dailyrainin,SoftwareType,DateUTC
2013-01-17 00:02:00,42.4,0.0,30.28,NW,317,0.0,0.0,0,0.00,,,0.00,WUHU216PEETBRO,2013-01-17 08:02:00,
2013-01-17 00:07:00,42.2,0.0,30.28,NW,317,0.0,0.0,0,0.00,,,0.00,WUHU216PEETBRO,2013-01-17 08:07:00,
2013-01-17 00:12:00,42.3,0.0,30.28,NW,317,0.0,0.0,0,0.00,,,0.00,WUHU216PEETBRO,2013-01-17 08:12:00,
2013-01-17 00:17:00,42.1,0.0,30.28,NW,317,0.0,0.0,0,0.00,,,0.00,WUHU216PEETBRO,2013-01-17 08:17:00,
2013-01-17 00:22:00,42.3,0.0,30.28,NW,317,0.0,0.0,0,0.00,,,0.00,WUHU216PEETBRO,2013-01-17 08:22:00,
2013-01-17 00:27:00,42.2,0.0,30.28,NW,317,0.0,0.0,0,0.00,,,0.00,WUHU216PEETBRO,2013-01-17 08:27:00,
2013-01-17 00:32:00,42.4,0.0,30.28,NW,317,0.0,0.0,0,0.00,,,0.00,WUHU216PEETBRO,2013-01-17 08:32:00,
2013-01-17 00:37:00,42.3,0.0,30.27,NW,317,0.0,0.0,0,0.00,,,0.00,WUHU216PEETBRO,2013-01-17 08:37:00,
2013-01-17 00:42:00,42.2,0.0,30.27,NW,317,0.0,0.0,0,0.00,,,0.00,WUHU216PEETBRO,2013-01-17 08:42:00,
2013-01-17 00:47:00,41.8,0.0,30.27,NW,317,0.0,0.0,0,0.00,,,0.00,WUHU216PEETBRO,2013-01-17 08:47:00,
2013-01-17 00:52:00,41.6,0.0,30.27,NW,317,0.0,0.0,0,0.00,,,0.00,WUHU216PEETBRO,2013-01-17 08:52:00,
2013-01-17 00:57:00,41.6,0.0,30.27,NW,317,0.0,0.0,0,0.00,,,0.00,WUHU216PEETBRO,2013-01-17 08:57:00,
2013-01-17 01:02:00,41.4,0.0,30.27,NW,317,0.0,0.0,0,0.00,,,0.00,WUHU216PEETBRO,2013-01-17 09:02:00,
2013-01-17 01:07:00,41.4,0.0,30.27,NW,317,0.0,0.0,0,0.00,,,0.00,WUHU216PEETBRO,2013-01-17 09:07:00,
2013-01-17 01:12:00,41.4,0.0,30.27,NW,317,0.0,0.0,0,0.00,,,0.00,WUHU216PEETBRO,2013-01-17 09:12:00,
2013-01-17 01:17:00,41.4,0.0,30.27,NW,317,0.0,0.0,0,0.00,,,0.00,WUHU216PEETBRO,2013-01-17 09:17:00,
2013-01-17 01:22:00,41.3,0.0,30.27,NW,317,0.0,0.0,0,0.00,,,0.00,WUHU216PEETBRO,2013-01-17 09:22:00,
2013-01-17 01:27:00,41.4,0.0,30.27,NW,317,0.0,0.0,0,0.00,,,0.00,WUHU216PEETBRO,2013-01-17 09:27:00,
2013-01-17 01:32:00,41.7,0.0,30.27,NW,317,0.0,0.0,0,0.00,,,0.00,WUHU216PEETBRO,2013-01-17 09:32:00,
2013-01-17 01:37:00,41.9,0.0,30.27,NW,317,0.0,0.0,0,0.00,,,0.00,WUHU216PEETBRO,2013-01-17 09:37:00,
2013-01-17 01:42:00,42.0,0.0,30.27,NW,317,0.0,0.0,0,0.00,,,0.00,WUHU216PEETBRO,2013-01-17 09:42:00,
2013-01-17 01:47:00,41.7,0.0,30.27,NW,317,0.0,0.0,0,0.00,,,0.00,WUHU216PEETBRO,2013-01-17 09:47:00,
2013-01-17 01:52:00,41.9,0.0,30.27,NW,317,0.0,0.0,0,0.00,,,0.00,WUHU216PEETBRO,2013-01-17 09:52:00,
2013-01-17 01:57:00,42.3,0.0,30.27,NW,317,0.0,0.0,0,0.00,,,0.00,WUHU216PEETBRO,2013-01-17 09:57:00,
2013-01-17 02:02:00,41.8,0.0,30.27,NW,317,0.0,0.0,0,0.00,,,0.00,WUHU216PEETBRO,2013-01-17 10:02:00,
2013-01-17 02:07:00,41.5,0.0,30.27,NW,317,0.0,0.0,0,0.00,,,0.00,WUHU216PEETBRO,2013-01-17 10:07:00,
2013-01-17 02:12:00,41.6,0.0,30.27,NW,317,0.0,0.0,0,0.00,,,0.00,WUHU216PEETBRO,2013-01-17 10:12:00,
2013-01-17 02:17:00,41.6,0.0,30.27,NW,317,0.0,0.0,0,0.00,,,0.00,WUHU216PEETBRO,2013-01-17 10:17:00,
2013-01-17 02:22:00,41.8,0.0,30.27,NW,317,0.0,0.0,0,0.00,,,0.00,WUHU216PEETBRO,2013-01-17 10:22:00,
2013-01-17 02:27:00,41.7,0.0,30.27,NW,317,0.0,0.0,0,0.00,,,0.00,WUHU216PEETBRO,2013-01-17 10:27:00,
2013-01-17 02:32:00,41.6,0.0,30.27,NW,317,0.0,0.0,0,0.00,,,0.00,WUHU216PEETBRO,2013-01-17 10:32:00,
2013-01-17 02:37:00,41.6,0.0,30.27,NW,317,0.0,0.0,0,0.00,,,0.00,WUHU216PEETBRO,2013-01-17 10:37:00,
2013-01-17 02:42:00,41.8,0.0,30.27,NW,317,0.0,0.0,0,0.00,,,0.00,WUHU216PEETBRO,2013-01-17 10:42:00,
2013-01-17 02:47:00,42.0,0.0,30.27,NW,317,0.0,0.0,0,0.00,,,0.00,WUHU216PEETBRO,2013-01-17 10:47:00,
2013-01-17 02:52:00,41.8,0.0,30.27,NW,317,0.0,0.0,0,0.00,,,0.00,WUHU216PEETBRO,2013-01-17 10:52:00,
2013-01-17 02:57:00,42.0,0.0,30.27,NW,317,0.0,0.0,0,0.00,,,0.00,WUHU216PEETBRO,2013-01-17 10:57:00,
2013-01-17 03:02:00,42.4,0.0,30.27,NW,317,0.0,0.0,0,0.00,,,0.00,WUHU216PEETBRO,2013-01-17 11:02:00,
2013-01-17 03:07:00,42.0,0.0,30.26,NW,317,0.0,0.0,0,0.00,,,0.00,WUHU216PEETBRO,2013-01-17 11:07:00,
2013-01-17 03:12:00,41.2,0.0,30.26,NNW,341,4.4,4.7,0,0.00,,,0.00,WUHU216PEETBRO,2013-01-17 11:12:00,
2013-01-17 03:17:00,41.0,0.0,30.26,NNE,15,3.4,4.7,0,0.00,,,0.00,WUHU216PEETBRO,2013-01-17 11:17:00,
2013-01-17 03:22:00,41.0,0.0,30.26,North,11,3.5,4.8,0,0.00,,,0.00,WUHU216PEETBRO,2013-01-17 11:22:00,
2013-01-17 03:27:00,41.0,0.0,30.26,North,4,3.3,4.8,0,0.00,,,0.00,WUHU216PEETBRO,2013-01-17 11:27:00,
2013-01-17 03:32:00,40.9,0.0,30.26,NNW,330,3.2,4.3,0,0.00,,,0.00,WUHU216PEETBRO,2013-01-17 11:32:00,
2013-01-17 03:37:00,40.4,0.0,30.25,NNW,331,3.1,4.2,0,0.00,,,0.00,WUHU216PEETBRO,2013-01-17 11:37:00,
2013-01-17 03:42:00,40.5,0.0,30.25,NNW,338,2.9,4.3,0,0.00,,,0.00,WUHU216PEETBRO,2013-01-17 11:42:00,
2013-01-17 03:47:00,40.2,0.0,30.26,NW,304,0.0,4.3,0,0.00,,,0.00,WUHU216PEETBRO,2013-01-17 11:47:00,
2013-01-17 03:52:00,40.6,0.0,30.26,NW,311,3.0,3.4,0,0.00,,,0.00,WUHU216PEETBRO,2013-01-17 11:52:00,
2013-01-17 03:57:00,41.0,0.0,30.26,NW,316,3.0,3.5,0,0.00,,,0.00,WUHU216PEETBRO,2013-01-17 11:57:00,
2013-01-17 04:02:00,40.8,0.0,30.26,NW,311,0.0,3.5,0,0.00,,,0.00,WUHU216PEETBRO,2013-01-17 12:02:00,
2013-01-17 04:07:00,41.2,0.0,30.26,NW,311,0.0,2.9,0,0.00,,,0.00,WUHU216PEETBRO,2013-01-17 12:07:00,
2013-01-17 04:12:00,41.6,0.0,30.26,NW,311,0.0,0.0,0,0.00,,,0.00,WUHU216PEETBRO,2013-01-17 12:12:00,
2013-01-17 04:17:00,41.6,0.0,30.25,NW,311,0.0,0.0,0,0.00,,,0.00,WUHU216PEETBRO,2013-01-17 12:17:00,
2013-01-17 04:22:00,41.6,0.0,30.25,NW,311,0.0,0.0,0,0.00,,,0.00,WUHU216PEETBRO,2013-01-17 12:22:00,
2013-01-17 04:27:00,41.8,0.0,30.25,NW,311,0.0,0.0,0,0.00,,,0.00,WUHU216PEETBRO,2013-01-17 12:27:00,
2013-01-17 04:32:00,41.4,0.0,30.25,NW,311,0.0,0.0,0,0.00,,,0.00,WUHU216PEETBRO,2013-01-17 12:32:00,
2013-01-17 04:37:00,41.9,0.0,30.25,NW,311,0.0,0.0,0,0.00,,,0.00,WUHU216PEETBRO,2013-01-17 12:37:00,
2013-01-17 04:42:00,41.4,0.0,30.25,NW,311,0.0,0.0,0,0.00,,,0.00,WUHU216PEETBRO,2013-01-17 12:42:00,
2013-01-17 04:47:00,41.1,0.0,30.25,NW,311,0.0,0.0,0,0.00,,,0.00,WUHU216PEETBRO,2013-01-17 12:47:00,
2013-01-17 04:52:00,41.6,0.0,30.25,NW,311,0.0,0.0,0,0.00,,,0.00,WUHU216PEETBRO,2013-01-17 12:52:00,
2013-01-17 04:57:00,41.6,0.0,30.25,NW,311,0.0,0.0,0,0.00,,,0.00,WUHU216PEETBRO,2013-01-17 12:57:00,
2013-01-17 05:02:00,41.2,0.0,30.24,NW,311,0.0,0.0,0,0.00,,,0.00,WUHU216PEETBRO,2013-01-17 13:02:00,
2013-01-17 05:07:00,41.2,0.0,30.25,NW,311,0.0,0.0,0,0.00,,,0.00,WUHU216PEETBRO,2013-01-17 13:07:00,
2013-01-17 05:12:00,41.1,0.0,30.25,NW,311,0.0,0.0,0,0.00,,,0.00,WUHU216PEETBRO,2013-01-17 13:12:00,
2013-01-17 05:17:00,41.0,0.0,30.24,NW,311,0.0,0.0,0,0.00,,,0.00,WUHU216PEETBRO,2013-01-17 13:17:00,
2013-01-17 05:22:00,41.4,0.0,30.24,NW,311,0.0,0.0,0,0.00,,,0.00,WUHU216PEETBRO,2013-01-17 13:22:00,
2013-01-17 05:27:00,41.3,0.0,30.24,NW,311,0.0,0.0,0,0.00,,,0.00,WUHU216PEETBRO,2013-01-17 13:27:00,
2013-01-17 05:32:00,41.6,0.0,30.24,NW,311,0.0,0.0,0,0.00,,,0.00,WUHU216PEETBRO,2013-01-17 13:32:00,
2013-01-17 05:37:00,41.4,0.0,30.24,NW,311,0.0,0.0,0,0.00,,,0.00,WUHU216PEETBRO,2013-01-17 13:37:00,
2013-01-17 05:42:00,41.8,0.0,30.24,NW,311,0.0,0.0,0,0.00,,,0.00,WUHU216PEETBRO,2013-01-17 13:42:00,
2013-01-17 05:47:00,41.8,0.0,30.24,NW,311,0.0,0.0,0,0.00,,,0.00,WUHU216PEETBRO,2013-01-17 13:47:00,
2013-01-17 05:52:00,41.3,0.0,30.24,NW,311,0.0,0.0,0,0.00,,,0.00,WUHU216PEETBRO,2013-01-17 13:52:00,
2013-01-17 05:57:00,41.7,0.0,30.24,NW,311,0.0,0.0,0,0.00,,,0.00,WUHU216PEETBRO,2013-01-17 13:57:00,
2013-01-17 06:02:00,41.3,0.0,30.24,NW,311,0.0,0.0,0,0.00,,,0.00,WUHU216PEETBRO,2013-01-17 14:02:00,
2013-01-17 06:07:00,41.0,0.0,30.24,NW,311,0.0,0.0,0,0.00,,,0.00,WUHU216PEETBRO,2013-01-17 14:07:00,
2013-01-17 06:12:00,41.1,0.0,30.24,NW,311,0.0,0.0,0,0.00,,,0.00,WUHU216PEETBRO,2013-01-17 14:12:00,
2013-01-17 06:17:00,41.3,0.0,30.24,NW,311,0.0,0.0,0,0.00,,,0.00,WUHU216PEETBRO,2013-01-17 14:17:00,
2013-01-17 06:22:00,41.3,0.0,30.24,NW,311,0.0,0.0,0,0.00,,,0.00,WUHU216PEETBRO,2013-01-17 14:22:00,
2013-01-17 06:27:00,41.4,0.0,30.24,NW,311,0.0,0.0,0,0.00,,,0.00,WUHU216PEETBRO,2013-01-17 14:27:00,
2013-01-17 06:32:00,41.6,0.0,30.24,NW,311,0.0,0.0,0,0.00,,,0.00,WUHU216PEETBRO,2013-01-17 14:32:00,
2013-01-17 06:37:00,41.6,0.0,30.24,NW,311,0.0,0.0,0,0.00,,,0.00,WUHU216PEETBRO,2013-01-17 14:37:00,
2013-01-17 06:42:00,41.4,0.0,30.24,NW,311,0.0,0.0,0,0.00,,,0.00,WUHU216PEETBRO,2013-01-17 14:42:00,
2013-01-17 06:47:00,41.4,0.0,30.24,NW,311,0.0,0.0,0,0.00,,,0.00,WUHU216PEETBRO,2013-01-17 14:47:00,
2013-01-17 06:52:00,41.6,0.0,30.24,NW,311,0.0,0.0,0,0.00,,,0.00,WUHU216PEETBRO,2013-01-17 14:52:00,
2013-01-17 06:57:00,41.2,0.0,30.24,NW,311,0.0,0.0,0,0.00,,,0.00,WUHU216PEETBRO,2013-01-17 14:57:00,
2013-01-17 07:02:00,41.2,0.0,30.24,NW,311,0.0,0.0,0,0.00,,,0.00,WUHU216PEETBRO,2013-01-17 15:02:00,
2013-01-17 07:07:00,41.4,0.0,30.24,NW,311,0.0,0.0,0,0.00,,,0.00,WUHU216PEETBRO,2013-01-17 15:07:00,
2013-01-17 07:12:00,41.4,0.0,30.25,NW,311,0.0,0.0,0,0.00,,,0.00,WUHU216PEETBRO,2013-01-17 15:12:00,
2013-01-17 07:17:00,41.5,0.0,30.25,NW,311,0.0,0.0,0,0.00,,,0.00,WUHU216PEETBRO,2013-01-17 15:17:00,
2013-01-17 07:22:00,42.0,0.0,30.25,NW,311,0.0,0.0,0,0.00,,,0.00,WUHU216PEETBRO,2013-01-17 15:22:00,
2013-01-17 07:27:00,41.8,0.0,30.25,NW,311,0.0,0.0,0,0.00,,,0.00,WUHU216PEETBRO,2013-01-17 15:27:00,
2013-01-17 07:32:00,41.6,0.0,30.25,NW,311,0.0,0.0,0,0.00,,,0.00,WUHU216PEETBRO,2013-01-17 15:32:00,
2013-01-17 07:37:00,41.7,0.0,30.25,NW,311,0.0,0.0,0,0.00,,,0.00,WUHU216PEETBRO,2013-01-17 15:37:00,
2013-01-17 07:42:00,41.9,0.0,30.25,NW,317,4.7,5.2,0,0.00,,,0.00,WUHU216PEETBRO,2013-01-17 15:42:00,
2013-01-17 07:47:00,41.9,0.0,30.25,NW,306,3.0,5.2,0,0.00,,,0.00,WUHU216PEETBRO,2013-01-17 15:47:00,
2013-01-17 07:52:00,42.1,0.0,30.25,NW,306,0.0,4.5,0,0.00,,,0.00,WUHU216PEETBRO,2013-01-17 15:52:00,
2013-01-17 07:57:00,42.4,0.0,30.26,NW,306,0.0,3.3,0,0.00,,,0.00,WUHU216PEETBRO,2013-01-17 15:57:00,
2013-01-17 08:02:00,42.4,0.0,30.26,NW,306,0.0,0.0,0,0.00,,,0.00,WUHU216PEETBRO,2013-01-17 16:02:00,
2013-01-17 08:07:00,42.6,0.0,30.26,NW,306,0.0,0.0,0,0.00,,,0.00,WUHU216PEETBRO,2013-01-17 16:07:00,
2013-01-17 08:12:00,42.8,0.0,30.26,NW,306,0.0,0.0,0,0.00,,,0.00,WUHU216PEETBRO,2013-01-17 16:12:00,
2013-01-17 08:17:00,43.1,0.0,30.26,NW,306,0.0,0.0,0,0.00,,,0.00,WUHU216PEETBRO,2013-01-17 16:17:00,
2013-01-17 08:22:00,43.2,0.0,30.27,NW,306,0.0,0.0,0,0.00,,,0.00,WUHU216PEETBRO,2013-01-17 16:22:00,
2013-01-17 08:27:00,43.4,0.0,30.27,NW,306,0.0,0.0,0,0.00,,,0.00,WUHU216PEETBRO,2013-01-17 16:27:00,
2013-01-17 08:32:00,43.7,0.0,30.27,NW,306,0.0,0.0,0,0.00,,,0.00,WUHU216PEETBRO,2013-01-17 16:32:00,
2013-01-17 08:37:00,43.5,0.0,30.27,NW,306,0.0,0.0,0,0.00,,,0.00,WUHU216PEETBRO,2013-01-17 16:37:00,
2013-01-17 08:42:00,44.0,0.0,30.27,NW,306,0.0,0.0,0,0.00,,,0.00,WUHU216PEETBRO,2013-01-17 16:42:00,
2013-01-17 08:47:00,44.2,0.0,30.27,NW,306,0.0,0.0,0,0.00,,,0.00,WUHU216PEETBRO,2013-01-17 16:47:00,
2013-01-17 08:52:00,44.8,0.0,30.27,NW,306,0.0,0.0,0,0.00,,,0.00,WUHU216PEETBRO,2013-01-17 16:52:00,
2013-01-17 08:57:00,45.1,0.0,30.27,NW,306,0.0,0.0,0,0.00,,,0.00,WUHU216PEETBRO,2013-01-17 16:57:00,
2013-01-17 09:02:00,44.9,0.0,30.27,NW,306,0.0,0.0,0,0.00,,,0.00,WUHU216PEETBRO,2013-01-17 17:02:00,
2013-01-17 09:07:00,45.2,0.0,30.28,NW,306,0.0,0.0,0,0.00,,,0.00,WUHU216PEETBRO,2013-01-17 17:07:00,
2013-01-17 09:12:00,45.4,0.0,30.28,NW,306,0.0,0.0,0,0.00,,,0.00,WUHU216PEETBRO,2013-01-17 17:12:00,
2013-01-17 09:17:00,45.7,0.0,30.28,NW,306,0.0,0.0,0,0.00,,,0.00,WUHU216PEETBRO,2013-01-17 17:17:00,
2013-01-17 09:22:00,45.7,0.0,30.28,NW,306,0.0,0.0,0,0.00,,,0.00,WUHU216PEETBRO,2013-01-17 17:22:00,
2013-01-17 09:27:00,46.3,0.0,30.28,NW,306,0.0,0.0,0,0.00,,,0.00,WUHU216PEETBRO,2013-01-17 17:27:00,
2013-01-17 09:32:00,46.4,0.0,30.28,NW,306,0.0,0.0,0,0.00,,,0.00,WUHU216PEETBRO,2013-01-17 17:32:00,
2013-01-17 09:37:00,46.9,0.0,30.28,NW,306,0.0,0.0,0,0.00,,,0.00,WUHU216PEETBRO,2013-01-17 17:37:00,
2013-01-17 09:42:00,47.2,0.0,30.28,NW,306,0.0,0.0,0,0.00,,,0.00,WUHU216PEETBRO,2013-01-17 17:42:00,
2013-01-17 09:47:00,47.5,0.0,30.28,NW,306,0.0,0.0,0,0.00,,,0.00,WUHU216PEETBRO,2013-01-17 17:47:00,
2013-01-17 09:52:00,47.9,0.0,30.28,NW,306,0.0,0.0,0,0.00,,,0.00,WUHU216PEETBRO,2013-01-17 17:52:00,
2013-01-17 09:57:00,48.2,0.0,30.28,NW,306,0.0,0.0,0,0.00,,,0.00,WUHU216PEETBRO,2013-01-17 17:57:00,
2013-01-17 10:02:00,48.9,0.0,30.28,NW,306,0.0,0.0,0,0.00,,,0.00,WUHU216PEETBRO,2013-01-17 18:02:00,
2013-01-17 10:07:00,49.2,0.0,30.28,NW,306,0.0,0.0,0,0.00,,,0.00,WUHU216PEETBRO,2013-01-17 18:07:00,
2013-01-17 10:12:00,50.0,0.0,30.28,NW,306,0.0,0.0,0,0.00,,,0.00,WUHU216PEETBRO,2013-01-17 18:12:00,
2013-01-17 10:17:00,50.4,0.0,30.28,NW,306,0.0,0.0,0,0.00,,,0.00,WUHU216PEETBRO,2013-01-17 18:17:00,
2013-01-17 10:22:00,50.8,0.0,30.28,NW,306,0.0,0.0,0,0.00,,,0.00,WUHU216PEETBRO,2013-01-17 18:22:00,
2013-01-17 10:27:00,51.0,0.0,30.28,NW,306,0.0,0.0,0,0.00,,,0.00,WUHU216PEETBRO,2013-01-17 18:27:00,
2013-01-17 10:32:00,51.5,0.0,30.28,SE,135,0.0,2.6,0,0.00,,,0.00,WUHU216PEETBRO,2013-01-17 18:32:00,
2013-01-17 10:37:00,52.1,0.0,30.28,SE,135,0.0,2.6,0,0.00,,,0.00,WUHU216PEETBRO,2013-01-17 18:37:00,
2013-01-17 10:42:00,52.0,0.0,30.28,SE,135,0.0,0.0,0,0.00,,,0.00,WUHU216PEETBRO,2013-01-17 18:42:00,
2013-01-17 10:47:00,52.4,0.0,30.28,SSE,151,4.2,4.2,0,0.00,,,0.00,WUHU216PEETBRO,2013-01-17 18:47:00,
2013-01-17 10:52:00,53.1,0.0,30.28,SE,134,0.0,4.2,0,0.00,,,0.00,WUHU216PEETBRO,2013-01-17 18:52:00,
2013-01-17 10:57:00,53.5,0.0,30.27,SSE,160,2.6,3.2,0,0.00,,,0.00,WUHU216PEETBRO,2013-01-17 18:57:00,
2013-01-17 11:02:00,53.5,0.0,30.27,SSE,159,0.0,3.0,0,0.00,,,0.00,WUHU216PEETBRO,2013-01-17 19:02:00,
2013-01-17 11:07:00,54.0,0.0,30.27,SSE,159,0.0,1.6,0,0.00,,,0.00,WUHU216PEETBRO,2013-01-17 19:07:00,
2013-01-17 11:12:00,53.9,0.0,30.27,SSE,159,0.0,0.0,0,0.00,,,0.00,WUHU216PEETBRO,2013-01-17 19:12:00,
2013-01-17 11:17:00,54.1,0.0,30.27,SSE,159,0.0,0.0,0,0.00,,,0.00,WUHU216PEETBRO,2013-01-17 19:17:00,
2013-01-17 11:22:00,54.7,0.0,30.26,SSW,203,3.0,3.4,0,0.00,,,0.00,WUHU216PEETBRO,2013-01-17 19:22:00,
2013-01-17 11:27:00,54.9,0.0,30.26,SSE,162,0.0,3.4,0,0.00,,,0.00,WUHU216PEETBRO,2013-01-17 19:27:00,
2013-01-17 11:32:00,55.6,0.0,30.26,SSE,162,0.0,3.2,0,0.00,,,0.00,WUHU216PEETBRO,2013-01-17 19:32:00,
2013-01-17 11:37:00,55.9,0.0,30.25,SSE,162,0.0,0.0,0,0.00,,,0.00,WUHU216PEETBRO,2013-01-17 19:37:00,
2013-01-17 11:42:00,56.2,0.0,30.25,SSE,162,0.0,0.0,0,0.00,,,0.00,WUHU216PEETBRO,2013-01-17 19:42:00,
2013-01-17 11:47:00,56.4,0.0,30.25,SSE,162,0.0,0.0,0,0.00,,,0.00,WUHU216PEETBRO,2013-01-17 19:47:00,
2013-01-17 11:52:00,56.6,0.0,30.25,SSE,162,0.0,0.0,0,0.00,,,0.00,WUHU216PEETBRO,2013-01-17 19:52:00,
2013-01-17 11:57:00,57.0,0.0,30.24,SSE,162,0.0,0.0,0,0.00,,,0.00,WUHU216PEETBRO,2013-01-17 19:57:00,
2013-01-17 12:02:00,57.0,0.0,30.24,SSE,162,0.0,0.0,0,0.00,,,0.00,WUHU216PEETBRO,2013-01-17 20:02:00,
2013-01-17 12:07:00,57.2,0.0,30.24,SSE,162,0.0,0.0,0,0.00,,,0.00,WUHU216PEETBRO,2013-01-17 20:07:00,
2013-01-17 12:12:00,57.4,0.0,30.24,SSE,162,0.0,0.0,0,0.00,,,0.00,WUHU216PEETBRO,2013-01-17 20:12:00,
2013-01-17 12:17:00,57.8,0.0,30.24,ESE,117,0.0,3.3,0,0.00,,,0.00,WUHU216PEETBRO,2013-01-17 20:17:00,
2013-01-17 12:22:00,57.7,0.0,30.24,ESE,117,0.0,3.3,0,0.00,,,0.00,WUHU216PEETBRO,2013-01-17 20:22:00,
2013-01-17 12:27:00,57.9,0.0,30.23,ESE,117,0.0,0.0,0,0.00,,,0.00,WUHU216PEETBRO,2013-01-17 20:27:00,
2013-01-17 12:32:00,57.9,0.0,30.23,ESE,117,0.0,0.0,0,0.00,,,0.00,WUHU216PEETBRO,2013-01-17 20:32:00,
2013-01-17 12:37:00,58.2,0.0,30.23,ESE,117,0.0,0.0,0,0.00,,,0.00,WUHU216PEETBRO,2013-01-17 20:37:00,
2013-01-17 12:42:00,58.9,0.0,30.23,ESE,110,0.0,3.1,0,0.00,,,0.00,WUHU216PEETBRO,2013-01-17 20:42:00,
2013-01-17 12:47:00,59.0,0.0,30.23,ESE,110,0.0,3.1,0,0.00,,,0.00,WUHU216PEETBRO,2013-01-17 20:47:00,
2013-01-17 12:52:00,59.0,0.0,30.23,ESE,110,0.0,0.0,0,0.00,,,0.00,WUHU216PEETBRO,2013-01-17 20:52:00,
2013-01-17 12:57:00,59.1,0.0,30.22,ESE,110,0.0,0.0,0,0.00,,,0.00,WUHU216PEETBRO,2013-01-17 20:57:00,
2013-01-17 13:02:00,59.4,0.0,30.22,East,87,0.0,3.4,0,0.00,,,0.00,WUHU216PEETBRO,2013-01-17 21:02:00,
2013-01-17 13:07:00,59.9,0.0,30.22,East,87,0.0,3.4,0,0.00,,,0.00,WUHU216PEETBRO,2013-01-17 21:07:00,
2013-01-17 13:12:00,60.0,0.0,30.22,East,87,0.0,0.0,0,0.00,,,0.00,WUHU216PEETBRO,2013-01-17 21:12:00,
2013-01-17 13:17:00,60.2,0.0,30.21,East,87,0.0,0.0,0,0.00,,,0.00,WUHU216PEETBRO,2013-01-17 21:17:00,
2013-01-17 13:22:00,60.9,0.0,30.21,East,97,2.9,5.2,0,0.00,,,0.00,WUHU216PEETBRO,2013-01-17 21:22:00,
2013-01-17 13:27:00,61.3,0.0,30.21,East,97,0.0,5.2,0,0.00,,,0.00,WUHU216PEETBRO,2013-01-17 21:27:00,
2013-01-17 13:32:00,61.8,0.0,30.21,East,97,0.0,2.9,0,0.00,,,0.00,WUHU216PEETBRO,2013-01-17 21:32:00,
2013-01-17 13:37:00,62.1,0.0,30.21,East,80,0.0,3.4,0,0.00,,,0.00,WUHU216PEETBRO,2013-01-17 21:37:00,
2013-01-17 13:42:00,62.4,0.0,30.20,SE,129,0.0,5.2,0,0.00,,,0.00,WUHU216PEETBRO,2013-01-17 21:42:00,
2013-01-17 13:47:00,63.1,0.0,30.20,SE,129,0.0,5.2,0,0.00,,,0.00,WUHU216PEETBRO,2013-01-17 21:47:00,
2013-01-17 13:52:00,63.4,0.0,30.20,SE,129,0.0,0.0,0,0.00,,,0.00,WUHU216PEETBRO,2013-01-17 21:52:00,
2013-01-17 13:57:00,63.8,0.0,30.20,SE,141,0.0,3.1,0,0.00,,,0.00,WUHU216PEETBRO,2013-01-17 21:57:00,
2013-01-17 14:02:00,64.4,0.0,30.20,SE,141,0.0,3.1,0,0.00,,,0.00,WUHU216PEETBRO,2013-01-17 22:02:00,
2013-01-17 14:07:00,64.8,0.0,30.20,SE,141,0.0,0.0,0,0.00,,,0.00,WUHU216PEETBRO,2013-01-17 22:07:00,
2013-01-17 14:12:00,65.4,0.0,30.20,SE,141,0.0,0.0,0,0.00,,,0.00,WUHU216PEETBRO,2013-01-17 22:12:00,
2013-01-17 14:17:00,65.9,0.0,30.20,SE,141,0.0,2.6,0,0.00,,,0.00,WUHU216PEETBRO,2013-01-17 22:17:00,
2013-01-17 14:22:00,66.0,0.0,30.20,SSE,165,0.0,4.9,0,0.00,,,0.00,WUHU216PEETBRO,2013-01-17 22:22:00,
2013-01-17 14:27:00,66.7,0.0,30.20,SSE,165,0.0,4.9,0,0.00,,,0.00,WUHU216PEETBRO,2013-01-17 22:27:00,
2013-01-17 14:32:00,66.8,0.0,30.19,SSE,163,0.0,3.5,0,0.00,,,0.00,WUHU216PEETBRO,2013-01-17 22:32:00,
2013-01-17 14:37:00,67.0,0.0,30.19,SSE,163,0.0,3.5,0,0.00,,,0.00,WUHU216PEETBRO,2013-01-17 22:37:00,
2013-01-17 14:42:00,67.2,0.0,30.19,SSE,163,0.0,0.0,0,0.00,,,0.00,WUHU216PEETBRO,2013-01-17 22:42:00,
2013-01-17 14:47:00,67.8,0.0,30.19,SSE,163,0.0,0.0,0,0.00,,,0.00,WUHU216PEETBRO,2013-01-17 22:47:00,
2013-01-17 14:52:00,67.9,0.0,30.19,SSE,163,0.0,0.0,0,0.00,,,0.00,WUHU216PEETBRO,2013-01-17 22:52:00,
2013-01-17 14:57:00,67.4,0.0,30.19,SSE,163,0.0,0.0,0,0.00,,,0.00,WUHU216PEETBRO,2013-01-17 22:57:00,
2013-01-17 15:02:00,67.8,0.0,30.19,SSE,163,0.0,0.0,0,0.00,,,0.00,WUHU216PEETBRO,2013-01-17 23:02:00,
2013-01-17 15:07:00,67.7,0.0,30.19,SSE,163,0.0,0.0,0,0.00,,,0.00,WUHU216PEETBRO,2013-01-17 23:07:00,
2013-01-17 15:12:00,67.9,0.0,30.19,SSE,163,0.0,0.0,0,0.00,,,0.00,WUHU216PEETBRO,2013-01-17 23:12:00,
2013-01-17 15:17:00,67.7,0.0,30.19,SSE,163,0.0,0.0,0,0.00,,,0.00,WUHU216PEETBRO,2013-01-17 23:17:00,
2013-01-17 15:22:00,67.5,0.0,30.19,SSE,163,0.0,0.0,0,0.00,,,0.00,WUHU216PEETBRO,2013-01-17 23:22:00,
2013-01-17 15:27:00,67.3,0.0,30.19,SE,142,0.0,2.7,0,0.00,,,0.00,WUHU216PEETBRO,2013-01-17 23:27:00,
2013-01-17 15:32:00,66.9,0.0,30.19,SE,131,0.0,3.5,0,0.00,,,0.00,WUHU216PEETBRO,2013-01-17 23:32:00,
2013-01-17 15:37:00,66.8,0.0,30.19,SE,131,0.0,3.5,0,0.00,,,0.00,WUHU216PEETBRO,2013-01-17 23:37:00,
2013-01-17 15:42:00,66.4,0.0,30.19,SE,131,0.0,0.0,0,0.00,,,0.00,WUHU216PEETBRO,2013-01-17 23:42:00,
2013-01-17 15:47:00,66.2,0.0,30.19,SE,131,0.0,0.0,0,0.00,,,0.00,WUHU216PEETBRO,2013-01-17 23:47:00,
2013-01-17 15:52:00,65.6,0.0,30.19,SE,131,0.0,0.0,0,0.00,,,0.00,WUHU216PEETBRO,2013-01-17 23:52:00,
2013-01-17 15:57:00,65.3,0.0,30.19,SE,131,0.0,0.0,0,0.00,,,0.00,WUHU216PEETBRO,2013-01-17 23:57:00,
2013-01-17 16:02:00,64.9,0.0,30.19,SE,131,0.0,0.0,0,0.00,,,0.00,WUHU216PEETBRO,2013-01-18 00:02:00,
2013-01-17 16:07:00,64.3,0.0,30.19,SE,131,0.0,0.0,0,0.00,,,0.00,WUHU216PEETBRO,2013-01-18 00:07:00,
2013-01-17 16:12:00,63.5,0.0,30.19,SE,131,0.0,0.0,0,0.00,,,0.00,WUHU216PEETBRO,2013-01-18 00:12:00,
2013-01-17 16:17:00,62.9,0.0,30.20,SE,131,0.0,0.0,0,0.00,,,0.00,WUHU216PEETBRO,2013-01-18 00:17:00,
2013-01-17 16:22:00,62.2,0.0,30.20,SE,131,0.0,0.0,0,0.00,,,0.00,WUHU216PEETBRO,2013-01-18 00:22:00,
2013-01-17 16:27:00,61.3,0.0,30.19,SE,131,0.0,0.0,0,0.00,,,0.00,WUHU216PEETBRO,2013-01-18 00:27:00,
2013-01-17 16:32:00,60.2,0.0,30.20,SE,131,0.0,0.0,0,0.00,,,0.00,WUHU216PEETBRO,2013-01-18 00:32:00,
2013-01-17 16:37:00,59.4,0.0,30.20,SE,131,0.0,0.0,0,0.00,,,0.00,WUHU216PEETBRO,2013-01-18 00:37:00,
2013-01-17 16:42:00,59.4,0.0,30.20,SE,131,0.0,0.0,0,0.00,,,0.00,WUHU216PEETBRO,2013-01-18 00:42:00,
2013-01-17 16:47:00,58.1,0.0,30.20,SE,131,0.0,0.0,0,0.00,,,0.00,WUHU216PEETBRO,2013-01-18 00:47:00,
2013-01-17 16:52:00,57.1,0.0,30.20,SE,131,0.0,0.0,0,0.00,,,0.00,WUHU216PEETBRO,2013-01-18 00:52:00,
2013-01-17 16:57:00,56.3,0.0,30.20,SE,131,0.0,0.0,0,0.00,,,0.00,WUHU216PEETBRO,2013-01-18 00:57:00,
2013-01-17 17:02:00,55.7,0.0,30.20,SE,131,0.0,0.0,0,0.00,,,0.00,WUHU216PEETBRO,2013-01-18 01:02:00,
2013-01-17 17:07:00,55.4,0.0,30.20,SE,131,0.0,0.0,0,0.00,,,0.00,WUHU216PEETBRO,2013-01-18 01:07:00,
2013-01-17 17:12:00,54.8,0.0,30.20,SE,131,0.0,0.0,0,0.00,,,0.00,WUHU216PEETBRO,2013-01-18 01:12:00,
2013-01-17 17:17:00,54.7,0.0,30.20,SE,131,0.0,0.0,0,0.00,,,0.00,WUHU216PEETBRO,2013-01-18 01:17:00,
2013-01-17 17:22:00,54.6,0.0,30.20,SE,131,0.0,0.0,0,0.00,,,0.00,WUHU216PEETBRO,2013-01-18 01:22:00,
2013-01-17 17:27:00,54.4,0.0,30.20,SE,131,0.0,0.0,0,0.00,,,0.00,WUHU216PEETBRO,2013-01-18 01:27:00,
2013-01-17 17:32:00,54.3,0.0,30.20,SE,131,0.0,0.0,0,0.00,,,0.00,WUHU216PEETBRO,2013-01-18 01:32:00,
2013-01-17 17:37:00,53.6,0.0,30.20,SE,131,0.0,0.0,0,0.00,,,0.00,WUHU216PEETBRO,2013-01-18 01:37:00,
2013-01-17 17:42:00,53.5,0.0,30.20,SE,131,0.0,0.0,0,0.00,,,0.00,WUHU216PEETBRO,2013-01-18 01:42:00,
2013-01-17 17:47:00,53.4,0.0,30.20,SE,131,0.0,0.0,0,0.00,,,0.00,WUHU216PEETBRO,2013-01-18 01:47:00,
2013-01-17 17:52:00,52.8,0.0,30.20,SE,131,0.0,0.0,0,0.00,,,0.00,WUHU216PEETBRO,2013-01-18 01:52:00,
2013-01-17 17:57:00,52.6,0.0,30.20,SE,131,0.0,0.0,0,0.00,,,0.00,WUHU216PEETBRO,2013-01-18 01:57:00,
2013-01-17 18:02:00,52.6,0.0,30.21,SE,131,0.0,0.0,0,0.00,,,0.00,WUHU216PEETBRO,2013-01-18 02:02:00,
2013-01-17 18:07:00,52.7,0.0,30.21,SE,131,0.0,0.0,0,0.00,,,0.00,WUHU216PEETBRO,2013-01-18 02:07:00,
2013-01-17 18:12:00,52.6,0.0,30.21,SE,131,0.0,0.0,0,0.00,,,0.00,WUHU216PEETBRO,2013-01-18 02:12:00,
2013-01-17 18:17:00,52.3,0.0,30.21,SE,131,0.0,0.0,0,0.00,,,0.00,WUHU216PEETBRO,2013-01-18 02:17:00,
2013-01-17 18:22:00,51.8,0.0,30.21,SE,131,0.0,0.0,0,0.00,,,0.00,WUHU216PEETBRO,2013-01-18 02:22:00,
2013-01-17 18:27:00,51.7,0.0,30.21,SE,131,0.0,0.0,0,0.00,,,0.00,WUHU216PEETBRO,2013-01-18 02:27:00,
2013-01-17 18:32:00,52.3,0.0,30.21,SE,131,0.0,0.0,0,0.00,,,0.00,WUHU216PEETBRO,2013-01-18 02:32:00,
2013-01-17 18:37:00,51.5,0.0,30.21,SE,131,0.0,0.0,0,0.00,,,0.00,WUHU216PEETBRO,2013-01-18 02:37:00,
2013-01-17 18:42:00,51.8,0.0,30.21,SE,131,0.0,0.0,0,0.00,,,0.00,WUHU216PEETBRO,2013-01-18 02:42:00,
2013-01-17 18:47:00,52.0,0.0,30.21,SE,131,0.0,0.0,0,0.00,,,0.00,WUHU216PEETBRO,2013-01-18 02:47:00,
2013-01-17 18:52:00,51.9,0.0,30.21,SE,131,0.0,0.0,0,0.00,,,0.00,WUHU216PEETBRO,2013-01-18 02:52:00,
2013-01-17 18:57:00,51.1,0.0,30.21,SE,131,0.0,0.0,0,0.00,,,0.00,WUHU216PEETBRO,2013-01-18 02:57:00,
2013-01-17 19:02:00,50.7,0.0,30.21,SE,131,0.0,0.0,0,0.00,,,0.00,WUHU216PEETBRO,2013-01-18 03:02:00,
2013-01-17 19:07:00,50.4,0.0,30.20,SE,131,0.0,0.0,0,0.00,,,0.00,WUHU216PEETBRO,2013-01-18 03:07:00,
2013-01-17 19:12:00,50.5,0.0,30.20,SE,131,0.0,0.0,0,0.00,,,0.00,WUHU216PEETBRO,2013-01-18 03:12:00,
2013-01-17 19:17:00,50.6,0.0,30.21,SE,131,0.0,0.0,0,0.00,,,0.00,WUHU216PEETBRO,2013-01-18 03:17:00,
2013-01-17 19:22:00,50.4,0.0,30.20,SE,131,0.0,0.0,0,0.00,,,0.00,WUHU216PEETBRO,2013-01-18 03:22:00,
2013-01-17 19:27:00,50.0,0.0,30.20,SE,131,0.0,0.0,0,0.00,,,0.00,WUHU216PEETBRO,2013-01-18 03:27:00,
2013-01-17 19:32:00,49.5,0.0,30.21,SE,131,0.0,0.0,0,0.00,,,0.00,WUHU216PEETBRO,2013-01-18 03:32:00,
2013-01-17 19:37:00,49.7,0.0,30.21,SE,131,0.0,0.0,0,0.00,,,0.00,WUHU216PEETBRO,2013-01-18 03:37:00,
2013-01-17 19:42:00,49.5,0.0,30.21,SE,131,0.0,0.0,0,0.00,,,0.00,WUHU216PEETBRO,2013-01-18 03:42:00,
2013-01-17 19:47:00,49.3,0.0,30.21,SE,131,0.0,0.0,0,0.00,,,0.00,WUHU216PEETBRO,2013-01-18 03:47:00,
2013-01-17 19:52:00,48.8,0.0,30.21,SE,131,0.0,0.0,0,0.00,,,0.00,WUHU216PEETBRO,2013-01-18 03:52:00,
2013-01-17 19:57:00,48.5,0.0,30.21,SE,131,0.0,0.0,0,0.00,,,0.00,WUHU216PEETBRO,2013-01-18 03:57:00,
2013-01-17 20:02:00,47.9,0.0,30.21,NW,320,3.0,3.4,0,0.00,,,0.00,WUHU216PEETBRO,2013-01-18 04:02:00,
2013-01-17 20:07:00,47.9,0.0,30.21,NW,317,0.0,3.4,0,0.00,,,0.00,WUHU216PEETBRO,2013-01-18 04:07:00,
2013-01-17 20:12:00,48.1,0.0,30.21,NW,317,0.0,3.0,0,0.00,,,0.00,WUHU216PEETBRO,2013-01-18 04:12:00,
2013-01-17 20:17:00,48.0,0.0,30.21,NW,317,0.0,0.0,0,0.00,,,0.00,WUHU216PEETBRO,2013-01-18 04:17:00,
2013-01-17 20:22:00,47.7,0.0,30.21,NW,317,0.0,0.0,0,0.00,,,0.00,WUHU216PEETBRO,2013-01-18 04:22:00,
2013-01-17 20:27:00,47.8,0.0,30.21,NW,317,0.0,0.0,0,0.00,,,0.00,WUHU216PEETBRO,2013-01-18 04:27:00,
2013-01-17 20:32:00,48.1,0.0,30.21,NW,317,0.0,0.0,0,0.00,,,0.00,WUHU216PEETBRO,2013-01-18 04:32:00,
2013-01-17 20:37:00,47.7,0.0,30.21,NW,317,0.0,0.0,0,0.00,,,0.00,WUHU216PEETBRO,2013-01-18 04:37:00,
2013-01-17 20:42:00,47.6,0.0,30.21,NW,317,0.0,0.0,0,0.00,,,0.00,WUHU216PEETBRO,2013-01-18 04:42:00,
2013-01-17 20:47:00,47.5,0.0,30.21,NW,317,0.0,0.0,0,0.00,,,0.00,WUHU216PEETBRO,2013-01-18 04:47:00,
2013-01-17 20:52:00,47.8,0.0,30.21,NNW,341,0.0,3.5,0,0.00,,,0.00,WUHU216PEETBRO,2013-01-18 04:52:00,
2013-01-17 20:57:00,47.6,0.0,30.21,NNW,328,3.4,4.4,0,0.00,,,0.00,WUHU216PEETBRO,2013-01-18 04:57:00,
2013-01-17 21:00:00,47.3,0.0,30.21,NNW,338,0.0,4.4,0,0.00,,,0.00,WUHU216PEETBRO,2013-01-18 05:00:00,
2013-01-17 21:02:00,47.2,0.0,30.21,NNW,338,0.0,4.4,0,0.00,,,0.00,WUHU216PEETBRO,2013-01-18 05:02:00,
2013-01-17 21:03:00,47.2,0.0,30.21,NNW,338,0.0,4.4,0,0.00,,,0.00,WUHU216PEETBRO,2013-01-18 05:03:00,
2013-01-17 21:08:00,47.4,0.0,30.21,NNW,328,3.5,4.9,0,0.00,,,0.00,WUHU216PEETBRO,2013-01-18 05:08:00,
2013-01-17 21:13:00,47.4,0.0,30.21,NW,321,3.4,4.9,0,0.00,,,0.00,WUHU216PEETBRO,2013-01-18 05:13:00,
2013-01-17 21:18:00,47.4,0.0,30.21,NW,304,4.2,4.8,0,0.00,,,0.00,WUHU216PEETBRO,2013-01-18 05:18:00,
2013-01-17 21:23:00,47.2,0.0,30.21,NNW,337,3.0,4.8,0,0.00,,,0.00,WUHU216PEETBRO,2013-01-18 05:23:00,
2013-01-17 21:28:00,47.1,0.0,30.21,NW,326,3.4,4.6,0,0.00,,,0.00,WUHU216PEETBRO,2013-01-18 05:28:00,
2013-01-17 21:33:00,46.5,0.0,30.21,NW,326,3.2,4.3,0,0.00,,,0.00,WUHU216PEETBRO,2013-01-18 05:33:00,
2013-01-17 21:38:00,46.4,0.0,30.21,NW,321,2.4,4.2,0,0.00,,,0.00,WUHU216PEETBRO,2013-01-18 05:38:00,
2013-01-17 21:43:00,46.4,0.0,30.21,NNW,331,0.0,3.4,0,0.00,,,0.00,WUHU216PEETBRO,2013-01-18 05:43:00,
2013-01-17 21:48:00,46.6,0.0,30.22,NNW,328,3.2,3.4,0,0.00,,,0.00,WUHU216PEETBRO,2013-01-18 05:48:00,
2013-01-17 21:53:00,46.7,0.0,30.21,NNW,330,3.2,3.4,0,0.00,,,0.00,WUHU216PEETBRO,2013-01-18 05:53:00,
2013-01-17 21:58:00,46.7,0.0,30.21,NNW,343,3.2,4.7,0,0.00,,,0.00,WUHU216PEETBRO,2013-01-18 05:58:00,
2013-01-17 22:03:00,46.6,0.0,30.21,NNW,330,3.4,4.7,0,0.00,,,0.00,WUHU216PEETBRO,2013-01-18 06:03:00,
2013-01-17 22:08:00,46.4,0.0,30.21,NNW,330,2.1,4.7,0,0.00,,,0.00,WUHU216PEETBRO,2013-01-18 06:08:00,
2013-01-17 22:13:00,46.3,0.0,30.21,NNW,334,3.3,4.7,0,0.00,,,0.00,WUHU216PEETBRO,2013-01-18 06:13:00,
2013-01-17 22:18:00,46.1,0.0,30.22,NNW,341,2.8,4.3,0,0.00,,,0.00,WUHU216PEETBRO,2013-01-18 06:18:00,
2013-01-17 22:23:00,46.1,0.0,30.22,NNW,330,3.2,4.2,0,0.00,,,0.00,WUHU216PEETBRO,2013-01-18 06:23:00,
2013-01-17 22:28:00,46.0,0.0,30.22,NNW,327,2.7,4.2,0,0.00,,,0.00,WUHU216PEETBRO,2013-01-18 06:28:00,
2013-01-17 22:33:00,46.0,0.0,30.22,NNW,331,3.4,4.3,0,0.00,,,0.00,WUHU216PEETBRO,2013-01-18 06:33:00,
2013-01-17 22:38:00,45.8,0.0,30.21,NW,326,3.4,4.5,0,0.00,,,0.00,WUHU216PEETBRO,2013-01-18 06:38:00,
2013-01-17 22:43:00,45.4,0.0,30.22,NNW,327,4.3,4.5,0,0.00,,,0.00,WUHU216PEETBRO,2013-01-18 06:43:00,
2013-01-17 22:48:00,45.4,0.0,30.22,NNW,327,3.5,4.7,0,0.00,,,0.00,WUHU216PEETBRO,2013-01-18 06:48:00,
2013-01-17 22:53:00,45.6,0.0,30.22,NNW,327,4.2,4.7,0,0.00,,,0.00,WUHU216PEETBRO,2013-01-18 06:53:00,
2013-01-17 22:58:00,45.7,0.0,30.22,NNW,327,3.4,4.7,0,0.00,,,0.00,WUHU216PEETBRO,2013-01-18 06:58:00,
2013-01-17 23:03:00,45.6,0.0,30.22,NNW,328,4.3,5.1,0,0.00,,,0.00,WUHU216PEETBRO,2013-01-18 07:03:00,
2013-01-17 23:08:00,45.6,0.0,30.22,NNW,330,3.4,5.1,0,0.00,,,0.00,WUHU216PEETBRO,2013-01-18 07:08:00,
2013-01-17 23:13:00,45.6,0.0,30.22,NNW,333,3.2,5.0,0,0.00,,,0.00,WUHU216PEETBRO,2013-01-18 07:13:00,
2013-01-17 23:18:00,45.6,0.0,30.22,NNW,340,0.0,4.3,0,0.00,,,0.00,WUHU216PEETBRO,2013-01-18 07:18:00,
2013-01-17 23:23:00,44.9,0.0,30.22,NNW,340,0.0,3.5,0,0.00,,,0.00,WUHU216PEETBRO,2013-01-18 07:23:00,
2013-01-17 23:28:00,45.1,0.0,30.22,NNW,340,0.0,0.0,0,0.00,,,0.00,WUHU216PEETBRO,2013-01-18 07:28:00,
2013-01-17 23:33:00,45.3,0.0,30.22,NNW,340,0.0,0.0,0,0.00,,,0.00,WUHU216PEETBRO,2013-01-18 07:33:00,
2013-01-17 23:38:00,44.8,0.0,30.22,NW,321,3.0,4.5,0,0.00,,,0.00,WUHU216PEETBRO,2013-01-18 07:38:00,
2013-01-17 23:43:00,44.7,0.0,30.22,NNW,331,3.4,4.5,0,0.00,,,0.00,WUHU216PEETBRO,2013-01-18 07:43:00,
2013-01-17 23:48:00,44.7,0.0,30.22,NW,320,4.2,4.7,0,0.00,,,0.00,WUHU216PEETBRO,2013-01-18 07:48:00,
2013-01-17 23:53:00,44.5,0.0,30.22,NW,319,3.4,5.3,0,0.00,,,0.00,WUHU216PEETBRO,2013-01-18 07:53:00,
2013-01-17 23:58:00,44.1,0.0,30.22,NNW,331,3.3,5.3,0,0.00,,,0.00,WUHU216PEETBRO,2013-01-18 07:58:00,